www.pogodaiklimat.ru

Погода и климат >> Архив погоды >> Барбадос >> Grantley Adams


ПОГОДА в Grantley Adams

  • Прогноз погоды в Grantley Adams
  • Монитор погоды в Grantley Adams
  • Климат города

АРХИВ ПОГОДЫ в Grantley Adams

Время (UTC), дата Ветер
(напр.,м/с)
 
Видим.   Явления Облачность Т
(С)
Тd
(С)
f
(%)
Тe
(С)
Тes
(С)
Комфортность P
(гПа)
Po
(гПа)
Тmin
(С)
Tmax
(С)
R
(мм)
R24
(мм)
S
(см)
09 11.08 В 4 24 км ясно +25.4 +23.0 87 +34 +34 очень
душно
1014.8 1007.1
12 11.08 В 5 28 км ясно +27.5 +24.6 84 +39 +43 очень
душно
1016.5 1008.8 +23.5 +31.1
15 11.08 В 6 28 км ясно +30.2 +23.7 68 +41 +50 опасность
перегрева
1017.0 1009.3
18 11.08 В 5 26 км {ливн. осадки} ясно +30.2 +23.6 68 +41 +51 опасность
перегрева
1016.0 1008.3 +23.5 +30.7
21 11.08 В 5 16 км осадки на расстоянии ясно +28.6 +22.9 71 +38 +39 очень
душно
1015.1 1007.4
00 12.08 В 5 18 км {ливн. осадки} ясно +26.9 +22.0 75 +35 +35 очень
душно
1016.0 1008.3 +30.7
03 12.08 В 4 18 км пыль ясно +26.7 +22.2 76 +35 +35 очень
душно
1017.5 1009.8
06 12.08 В 4 18 км пыль ясно +26.5 +22.4 78 +35 +35 очень
душно
1015.7 1008.0 +23.6 +30.7
09 12.08 В 4 18 км пыль ясно +26.2 +21.7 76 +34 +34 очень
душно
1015.7 1008.0
12 12.08 В 4 20 км ясно +28.1 +22.5 72 +37 +41 очень
душно
1016.6 1008.9 +26.2 +30.7
15 12.08 В 5 20 км ясно +31.0 +22.2 60 +40 +52 опасность
солнечного
удара
1016.9 1009.2
18 12.08 В 5 20 км ясно +30.2 +22.2 62 +39 +48 очень
душно
1015.0 1007.3 +26.2 +31.0
21 12.08 В 4 18 км пыль ясно +28.7 +21.5 65 +37 +38 очень
душно
1013.9 1006.2
03 13.08 В 4 16 км осадки на расстоянии ясно +26.7 +22.1 76 +35 +35 очень
душно
1016.0 1008.3
09 13.08 В 4 18 км ясно +26.2 +21.7 76 +34 +34 очень
душно
1013.8 1006.1
12 13.08 В 4 26 км ясно +28.0 +22.0 70 +36 +40 очень
душно
1014.8 1007.1 +26.2 +31.0
15 13.08 В 5 26 км ясно +30.0 +21.2 59 +38 +50 очень
душно
1015.1 1007.4
18 13.08 В 4 26 км ясно +30.2 +21.7 60 +38 +49 очень
душно
1013.3 1005.6 +26.2 +30.7
21 13.08 В 4 22 км ясно +28.7 +22.2 68 +37 +39 очень
душно
1012.4 1004.7
06 14.08 В 3 20 км ясно +26.4 +21.6 75 +34 +34 очень
душно
1013.1 1005.4 +26.2 +30.9
09 14.08 В 4 20 км ясно +26.0 +21.7 77 +33 +33 очень
душно
1012.4 1004.7
15 14.08 В 4 28 км ясно +30.7 +20.9 56 +38 +52 опасность
солнечного
удара
1014.5 1006.8
18 14.08 В 3 28 км ясно +30.0 +22.9 66 +40 +54 опасность
солнечного
удара
1012.9 1005.2 +25.7 +30.7
21 14.08 В 1 28 км ясно +28.2 +22.2 70 +37 +39 очень
душно
1012.3 1004.6
06 15.08 СВ 1 28 км ясно +24.4 +22.2 88 +32 +32 очень
душно
1013.4 1005.6 +24.4 +30.7
09 15.08 С 1 24 км осадки на расстоянии ясно +23.7 +22.2 91 +31 +31 очень
душно
1013.4 1005.6
12 15.08 ЮВ 2 16 км в посл. час ливневой дождь ясно +28.0 +23.2 75 +38 +44 очень
душно
1014.5 1006.8 +23.7 +30.7
18 15.08 ЮВ 3 16 км осадки на расстоянии ясно +30.2 +22.7 64 +40 +55 опасность
солнечного
удара
1014.1 1006.4 +23.7 +30.4
00 16.08 В 3 22 км осадки на расстоянии {ливн. осадки} ясно +25.9 +23.2 85 +35 +35 очень
душно
1015.3 1007.6 +31.0 5
06 16.08 В 3 24 км ясно +26.1 +23.1 84 +35 +35 очень
душно
1015.2 1007.8 +24.1 +31.0
09 16.08 В 4 26 км ясно +26.1 +22.5 81 +34 +34 очень
душно
1015.4 1007.7
12 16.08 В 4 30 км осадки на расстоянии ясно +28.2 +23.5 76 +38 +43 очень
душно
1016.6 1008.9 +25.2 +31.0
15 16.08 В 4 30 км осадки на расстоянии ясно +30.1 +23.2 67 +41 +56 опасность
перегрева
1017.2 1009.5
21 16.08 В 3 25 км {ливн. осадки} ясно +27.7 +23.2 77 +37 +39 очень
душно
1014.9 1007.2
00 17.08 В 3 20 км слабый ливневой дождь ясно +26.9 +24.2 85 +37 +37 очень
душно
1016.4 1008.7 +30.7
03 17.08 В 4 16 км слабый ливневой дождь ясно +25.7 +23.7 89 +35 +35 очень
душно
1017.8 1010.1
06 17.08 В 3 20 км осадки на расстоянии {ливн. осадки} ясно +26.5 +24.2 87 +37 +37 очень
душно
1016.0 1008.3 +25.2 +30.7
09 17.08 В 4 20 км осадки на расстоянии {ливн. осадки, дождь} ясно +25.6 +24.2 92 +35 +35 очень
душно
1016.1 1008.4
12 17.08 В 3 6000 м слабый ливневой дождь ясно +26.7 +25.0 90 +38 +43 очень
душно
1017.3 1009.6 +24.6 +30.7 10
15 17.08 В 5 24 км {ливн. осадки} ясно +29.7 +23.2 68 +40 +52 опасность
солнечного
удара
1017.3 1009.6
18 17.08 В 4 20 км слабый дождь {ливн. осадки} ясно +28.6 +23.4 73 +39 +50 очень
душно
1016.1 1008.4 +24.6 +30.2
21 17.08 В 3 22 км осадки на расстоянии {ливн. осадки} ясно +26.1 +23.6 86 +35 +37 очень
душно
1015.8 1008.1
00 18.08 В 3 22 км в посл. час ливневой дождь ясно +25.5 +24.2 93 +35 +35 очень
душно
1016.5 1008.8 +30.2 2
03 18.08 В 4 20 км осадки на расстоянии ясно +26.1 +23.7 87 +36 +36 очень
душно
1016.6 1008.9

 

Местоположение метеостанции Grantley Adams (Барбадос): широта 13.07 долгота -59.48 высота над уровнем моря 56 м.

В архиве по умолчанию представлена погода в Grantley Adams за последнюю неделю. Архивные данные за месяц целиком и за предыдущие месяцы, начиная с января 2011 года, Вы можете получить, выбрав интересующий диапазон дат из раскрывающегося списка и нажав кнопку "Ввод!".


*Определитесь, кто Вы:
робот инопланетянин человек

Внимание! Время в таблицах - всемирное. Для получения местного времени необходимо прибавить поправку, которая в Grantley Adams равна -4 ч.

Смотрите также архив погоды в соседних городах и на ближайших метеорологических станциях:

Погода в Hewanorra Int Airport (Сент-Люсия) (175 км)
Погода в Arnos Vale (Сент-Винсент и Гренадины) (186 км)
Погода в Vigie (Сент-Люсия) (195 км)
Погода в Le Lamentin (Мартиника) (236 км)
Погода в Crown Point Airport (Тринидад и Тобаго) (259 км)
Погода в Maurise Bishop Airport (Гренада) (277 км)
Погода в Melville Hall Airport (Доминика) (337 км)
Погода в Piarco Int Airport (Тринидад и Тобаго) (339 км)
Погода в Canefield Airport (Доминика) (343 км)
Погода в Guiria Airport (Венесуэла) (414 км)

Пояснения к столбцам:

Ветер - указаны скорость ветра в м/с - средняя за 10 мин, порывы в срок и между сроками (в фигурных скобках) и направление, откуда дует ветер: С - северный, СВ - северо-восточный, В - восточный, ЮВ - юго-восточный, Ю - южный, ЮЗ - юго-западный, З - западный, СЗ - северо-западный.
Видимость - горизонтальная дальность видимости в метрах или километрах. При видимости от 1 до 10 км при отсутствии осадков обычно наблюдается дымка, при ухудшении видимости до 1 км и менее - туман. В сухую погоду видимость может ухудшаться дымом, пылью или мглою.
Явления - указаны атмосферные явления, наблюдавшиеся в срок или в последний час перед сроком; фигурными скобками обозначены явления, наблюдавшиеся между сроками (за 1-3 часа до срока); квадратными скобками обозначены град или гололедные отложения с указанием их диаметра в мм.
Облачность - указаны через наклонную черту общая и нижняя облачность в баллах и высота нижней границы облаков в метрах; квадратными скобками обозначены формы облаков: Ci - перистые, Cs - перисто-слоистые, Cc - перисто-кучевые, Ac - высококучевые, As - высокослоистые, Sc - слоисто-кучевые, Ns - слоисто-дождевые, Cu - кучевые, Cb - кучево-дождевые. Подробнее классификацию облаков см. в Атласе облаков (PDF).
T - Температура воздуха - температура, измеренная на высоте 2 м над землей.
Td - Температура точки росы - температура, при понижении до которой содержащийся в воздухе водяной пар достигнет насыщения.
f - Относительная влажность воздуха - влажноcть воздуха, измеренная на высоте 2 м над землей.
Te - Эффективная температура - температура, которую ощущает одетый по сезону человек в тени. Характеристика душности погоды. При расчете учитывается влияние влажности воздуха и скорости ветра на теплоощущения человека.
Tes - Эффективная температура на солнце - температура, которую ощущает человек, с поправкой на солнечный нагрев. Характеристика знойности погоды. Зависит от высоты солнца над горизонтом, облачности и скорости ветра. Ночью, в пасмурную погоду, а также при ветре 12 м/с и более поправка равна нулю.
P - Атмосферное давление - приведенное к уровню моря атмосферное давление.
Po - Атмосферное давление - измеренное на уровне метеостанции атмосферное давление.
Tmin - Минимальная температура - минимум температуры воздуха на высоте 2 м над землей.
Tmax - Максимальная температура - максимум температуры воздуха на высоте 2 м над землей.
R - Количество осадков - Количество выпавших осадков за период времени, мм. При наведении курсора мыши на число - период времени, за который выпало указанное количество осадков.
R24 - Количество осадков - Количество выпавших осадков за 24 часа, мм.
S - Снежный покров - Высота снежного покрова, см. При наведении курсора мыши на число - состояние снежного покрова и степень покрытия местности в баллах.